TimeCST,TemperatureF,Dew PointF,Humidity,Sea Level PressureIn,VisibilityMPH,Wind Direction,Wind SpeedMPH,Gust SpeedMPH,PrecipitationIn,Events,Conditions,WindDirDegrees,DateUTC
12:53 AM,41.0,30.9,67,30.22,10.0,SSE,6.9,-,N/A,,Clear,150,2012-11-29 06:53:00
1:53 AM,39.9,30.9,70,30.21,10.0,SSE,6.9,-,N/A,,Clear,160,2012-11-29 07:53:00
2:53 AM,39.9,30.9,70,30.20,10.0,SSE,8.1,-,N/A,,Clear,160,2012-11-29 08:53:00
3:53 AM,41.0,32.0,70,30.19,10.0,South,9.2,-,N/A,,Clear,170,2012-11-29 09:53:00
4:53 AM,42.1,32.0,67,30.19,10.0,South,10.4,-,N/A,,Clear,180,2012-11-29 10:53:00
5:53 AM,45.0,30.9,58,30.18,10.0,South,16.1,-,N/A,,Clear,180,2012-11-29 11:53:00
6:53 AM,46.0,30.9,56,30.16,10.0,South,17.3,-,N/A,,Clear,180,2012-11-29 12:53:00
7:53 AM,46.9,32.0,56,30.16,10.0,South,20.7,-,N/A,,Clear,180,2012-11-29 13:53:00
8:53 AM,50.0,34.0,54,30.15,10.0,South,19.6,31.1,N/A,,Clear,190,2012-11-29 14:53:00
9:53 AM,54.0,36.0,51,30.14,10.0,South,20.7,-,N/A,,Clear,190,2012-11-29 15:53:00
10:53 AM,57.0,37.0,47,30.13,10.0,South,21.9,27.6,N/A,,Clear,190,2012-11-29 16:53:00
11:53 AM,61.0,37.9,42,30.11,10.0,South,13.8,24.2,N/A,,Clear,190,2012-11-29 17:53:00
12:53 PM,64.0,35.1,34,30.09,10.0,SSW,13.8,25.3,N/A,,Clear,200,2012-11-29 18:53:00
1:53 PM,66.0,32.0,28,30.07,10.0,SSW,23.0,33.4,N/A,,Clear,200,2012-11-29 19:53:00
2:53 PM,66.0,32.0,28,30.05,10.0,SSW,16.1,26.5,N/A,,Clear,200,2012-11-29 20:53:00
3:53 PM,64.9,30.9,28,30.04,10.0,South,17.3,24.2,N/A,,Clear,190,2012-11-29 21:53:00
4:53 PM,61.0,32.0,34,30.04,10.0,South,13.8,-,N/A,,Clear,180,2012-11-29 22:53:00
5:53 PM,57.0,33.1,40,30.02,10.0,South,13.8,-,N/A,,Clear,170,2012-11-29 23:53:00
6:53 PM,55.0,33.1,43,30.03,10.0,South,13.8,-,N/A,,Clear,170,2012-11-30 00:53:00
7:53 PM,53.1,32.0,45,30.05,10.0,South,10.4,-,N/A,,Clear,180,2012-11-30 01:53:00
8:53 PM,48.0,32.0,54,30.08,10.0,SSW,6.9,-,N/A,,Clear,200,2012-11-30 02:53:00
9:53 PM,50.0,32.0,50,30.09,10.0,South,10.4,-,N/A,,Clear,190,2012-11-30 03:53:00
10:53 PM,48.9,30.9,50,30.09,10.0,South,11.5,-,N/A,,Clear,190,2012-11-30 04:53:00
11:53 PM,51.1,30.0,44,30.10,10.0,South,11.5,-,N/A,,Clear,190,2012-11-30 05:53:00